FW0423 Weather Reports


Display with metric or nautical units.
time (UTC)temp
F
wind
direction
speed
MPH
gust
MPH
rain 1hr
in
rain 24hr
in
rain mn
in
humidity
%
barometer
mb
20220926041654 76 43 0.0 1.0 0.00 0.60 0.00 95 1011.1
20220926041153 76 43 0.0 1.0 0.00 0.61 0.00 95 1011.2
20220926040653 76 43 0.0 0.0 0.00 0.61 0.00 95 1011.3
20220926040153 76 43 0.0 0.0 0.00 0.61 0.00 95 1011.2
20220926034150 77 43 0.0 0.0 0.00 0.61 0.61 95 1011.5
20220926033644 77 43 0.0 0.0 0.00 0.61 0.61 95 1011.5
20220926032626 77 43 0.0 0.0 0.00 0.61 0.61 95 1011.5
20220926031616 77 43 0.0 0.0 0.00 0.61 0.61 95 1011.3
20220926030559 77 43 0.0 0.0 0.00 0.62 0.61 94 1011.4
20220926025543 77 43 0.0 0.0 0.00 0.62 0.61 94 1011.4
20220926025037 77 43 0.0 0.0 0.00 0.62 0.61 94 1011.4
20220926024021 77 43 0.0 0.0 0.00 0.62 0.61 94 1011.2
20220926022455 78 43 0.0 0.0 0.00 0.65 0.61 94 1011.1
20220926021444 78 43 0.0 0.0 0.00 0.65 0.61 93 1011.2
20220926020427 78 43 0.0 0.0 0.00 0.65 0.61 93 1011.1
20220926015920 78 43 0.0 0.0 0.00 0.65 0.61 92 1011.0
20220926014400 78 43 0.0 0.0 0.00 0.65 0.61 92 1011.0
20220926012837 78 43 0.0 1.0 0.00 0.65 0.61 91 1010.8
20220926012327 79 43 0.0 0.0 0.00 0.65 0.61 90 1010.8
20220926011821 79 43 0.0 1.0 0.00 0.65 0.61 90 1010.8
20220926011316 79 43 0.0 1.0 0.00 0.65 0.61 90 1010.7
20220926010806 79 43 0.0 1.0 0.00 0.65 0.61 89 1010.7
20220926005753 80 43 0.0 1.0 0.00 0.65 0.61 89 1010.6
20220926004231 80 42 0.0 1.0 0.00 0.65 0.61 87 1010.5
20220926003720 81 42 0.0 0.0 0.00 0.65 0.61 87 1010.4
20220926003215 81 42 0.0 0.0 0.00 0.65 0.61 86 1010.5
20220926002710 81 42 0.0 0.0 0.00 0.65 0.61 86 1010.4
20220926002155 81 42 0.0 0.0 0.00 0.65 0.61 85 1010.3
20220926001650 82 42 0.0 1.0 0.00 0.66 0.61 84 1010.3
20220926001144 82 42 0.0 1.0 0.00 0.66 0.61 84 1010.2
20220926000633 82 42 0.0 2.0 0.00 0.73 0.61 83 1010.1
20220926000128 82 72 0.0 2.0 0.00 0.78 0.61 83 1010.0
20220925235621 83 69 0.0 2.0 0.00 0.78 0.61 82 1010.1
20220925235105 83 71 1.0 5.0 0.00 0.78 0.61 82 1010.0
20220925234600 83 94 1.0 5.0 0.00 0.78 0.61 82 1009.9
20220925234054 83 53 1.0 5.0 0.00 0.78 0.61 82 1009.9
20220925233039 83 88 1.0 4.0 0.00 0.81 0.61 81 1009.9
20220925232532 84 57 1.0 8.0 0.00 0.82 0.61 81 1009.9
20220925232022 84 151 1.0 8.0 0.00 0.82 0.61 81 1010.0
20220925231516 84 78 1.0 6.0 0.00 0.82 0.61 80 1010.1
20220925231010 84 78 1.0 6.0 0.00 0.82 0.61 80 1010.2
20220925230459 84 71 2.0 6.0 0.00 0.83 0.61 79 1010.2
20220925225448 85 348 2.0 8.0 0.00 0.85 0.61 78 1010.0
20220925224938 85 88 2.0 6.0 0.00 0.86 0.61 78 1010.0
20220925224432 85 63 2.0 8.0 0.00 0.87 0.61 77 1010.1
20220925223926 86 84 2.0 8.0 0.00 0.87 0.61 76 1010.1
20220925223416 86 91 2.0 7.0 0.00 0.87 0.61 75 1010.1
20220925222910 87 57 2.0 7.0 0.00 0.87 0.61 74 1010.2
20220925221854 87 101 2.0 7.0 0.00 0.90 0.61 72 1010.1
20220925221348 88 75 2.0 7.0 0.00 0.93 0.61 71 1010.0
20220925220332 89 123 2.0 9.0 0.00 1.01 0.61 69 1009.8
20220925215320 90 84 2.0 9.0 0.00 1.22 0.61 67 1009.7
20220925214806 91 67 2.0 9.0 0.00 1.35 0.61 66 1009.6
20220925214300 91 82 3.0 9.0 0.00 1.55 0.61 65 1009.6
20220925213754 91 112 2.0 6.0 0.00 1.61 0.61 65 1009.6
20220925212738 91 78 2.0 7.0 0.00 1.97 0.61 65 1009.5
20220925212232 91 132 2.0 7.0 0.00 2.23 0.61 64 1009.6
20220925211718 91 69 2.0 6.0 0.00 2.56 0.61 65 1009.4
20220925211212 90 76 2.0 7.0 0.00 2.88 0.61 65 1009.4
20220925210706 89 63 2.0 7.0 0.00 2.99 0.61 67 1009.5
20220925210157 89 131 3.0 9.0 0.00 2.99 0.61 68 1009.4
20220925205650 89 130 2.0 9.0 0.00 2.99 0.61 67 1009.4
20220925204142 89 57 2.0 7.0 0.00 2.99 0.61 68 1009.2
20220925203622 89 61 1.0 7.0 0.00 2.99 0.61 69 1009.1
20220925203112 88 57 2.0 9.0 0.00 3.00 0.61 70 1009.2
20220925202100 87 75 2.0 8.0 0.00 3.14 0.61 70 1009.3
20220925201550 88 57 2.0 8.0 0.00 3.17 0.61 70 1009.2
20220925201045 88 115 2.0 6.0 0.00 3.18 0.61 70 1009.1
20220925200538 88 82 2.0 7.0 0.00 3.18 0.61 70 1009.1
20220925195016 89 40 2.0 10.0 0.00 3.18 0.61 68 1009.1
20220925194506 89 74 2.0 10.0 0.00 3.18 0.61 67 1009.3
20220925194000 90 110 2.0 8.0 0.00 3.18 0.61 69 1009.3
20220925192944 90 118 2.0 9.0 0.00 3.18 0.61 67 1009.4
20220925191418 93 131 3.0 11.0 0.00 3.34 0.61 63 1009.6
20220925190912 94 47 3.0 11.0 0.00 3.35 0.61 63 1009.6
20220925185350 94 57 1.0 7.0 0.00 3.35 0.61 61 1009.9
20220925184844 94 155 1.0 2.0 0.00 3.35 0.61 59 1010.0
20220925183824 92 267 0.0 1.0 0.00 3.35 0.61 61 1009.9
20220925183318 92 184 1.0 2.0 0.00 3.35 0.61 64 1010.0
20220925182305 92 252 0.0 2.0 0.00 3.35 0.61 59 1010.3
20220925181756 92 223 1.0 2.0 0.00 3.36 0.61 65 1010.3
20220925181246 92 223 1.0 2.0 0.00 3.38 0.61 62 1010.4
20220925180234 91 99 1.0 3.0 0.00 3.45 0.61 61 1010.6
20220925175724 91 227 2.0 4.0 0.00 3.51 0.61 61 1010.7
20220925174202 94 277 1.0 3.0 0.00 3.93 0.61 59 1010.8
20220925173658 94 222 1.0 3.0 0.00 4.13 0.61 58 1011.0
20220925173150 93 338 1.0 3.0 0.00 4.22 0.61 61 1010.9
20220925171628 91 304 2.0 5.0 0.00 4.44 0.61 64 1011.3
20220925170612 93 204 1.0 3.0 0.00 4.44 0.61 60 1011.4
20220925170105 93 230 1.0 3.0 0.00 4.44 0.61 61 1011.5
20220925165555 92 304 1.0 3.0 0.00 4.44 0.61 60 1011.6
20220925164544 91 346 1.0 3.0 0.00 4.44 0.61 63 1011.8
20220925164030 91 187 1.0 3.0 0.00 4.44 0.61 64 1011.9
20220925163018 91 223 1.0 4.0 0.00 4.44 0.61 64 1012.1
20220925161458 92 217 1.0 4.0 0.00 4.44 0.61 64 1012.2
20220925160946 92 51 1.0 4.0 0.00 4.44 0.61 63 1012.2
20220925160440 93 221 1.0 2.0 0.00 4.44 0.61 61 1012.3
20220925155934 92 82 1.0 2.0 0.00 4.44 0.61 61 1012.3
20220925154412 92 328 1.0 3.0 0.00 4.44 0.61 63 1012.2
20220925153356 91 252 1.0 3.0 0.00 4.44 0.61 66 1012.2
20220925152850 90 331 1.0 3.0 0.00 4.44 0.61 67 1012.2
20220925152340 89 321 1.0 3.0 0.00 4.44 0.61 72 1012.2
20220925151834 87 86 1.0 3.0 0.00 4.44 0.61 72 1012.2
20220925151328 87 273 2.0 3.0 0.00 4.44 0.61 72 1012.2
20220925150818 86 238 2.0 3.0 0.00 4.44 0.61 72 1012.3
20220925150311 86 262 1.0 4.0 0.00 4.44 0.61 74 1012.3
20220925145806 86 248 1.0 4.0 0.00 4.44 0.61 76 1012.2
20220925145256 86 214 1.0 3.0 0.00 4.44 0.61 81 1012.2
20220925144750 85 290 1.0 3.0 0.00 4.44 0.61 80 1012.2
20220925143733 85 244 1.0 3.0 0.00 4.44 0.61 84 1012.2
20220925143228 84 256 1.0 3.0 0.00 4.44 0.61 84 1012.2
20220925142722 84 248 1.0 3.0 0.00 4.44 0.61 83 1012.3
20220925142208 84 217 0.0 2.0 0.00 4.44 0.61 88 1012.3
20220925141702 83 5 0.0 2.0 0.00 4.44 0.61 90 1012.1
20220925141154 82 336 0.0 1.0 0.00 4.44 0.61 92 1012.1
20220925140645 81 265 0.0 1.0 0.00 4.44 0.61 94 1012.2
20220925140139 80 242 1.0 2.0 0.00 4.44 0.61 96 1012.2
20220925135633 80 319 1.0 2.0 0.00 4.44 0.61 97 1012.2
20220925134613 79 236 0.0 2.0 0.00 4.44 0.61 98 1012.1
20220925134112 79 273 0.0 2.0 0.00 4.44 0.61 98 1012.1
20220925133608 78 251 0.0 2.0 0.00 4.44 0.61 98 1012.0
20220925133107 79 5 0.0 1.0 0.00 4.44 0.61 99 1012.0
20220925132106 78 250 0.0 1.0 0.00 4.44 0.61 99 1012.2
20220925131607 78 336 0.0 1.0 0.00 4.44 0.61 99 1012.0
20220925131104 78 336 0.0 1.0 0.00 4.44 0.61 99 1011.9
20220925130602 78 336 0.0 1.0 0.00 4.44 0.61 99 1011.9
20220925130102 78 13 0.0 1.0 0.00 4.44 0.61 99 1011.8
20220925125604 78 302 0.0 0.0 0.00 4.44 0.61 99 1011.8
20220925125100 78 302 0.0 1.0 0.00 4.44 0.61 99 1011.8
20220925124558 78 278 0.0 1.0 0.00 4.44 0.61 99 1011.8
20220925123554 77 30 0.0 1.0 0.00 4.44 0.61 99 1011.9
20220925123051 77 115 0.0 0.0 0.00 4.44 0.61 99 1011.7
20220925122551 76 115 0.0 0.0 0.00 4.44 0.61 99 1011.7
20220925122048 76 115 0.0 1.0 0.00 4.44 0.61 99 1011.7
20220925121541 76 115 0.0 1.0 0.00 4.44 0.61 99 1011.7
20220925121043 76 115 0.0 0.0 0.00 4.44 0.61 99 1011.8
20220925120541 75 115 0.0 0.0 0.00 4.44 0.61 99 1011.6
20220925115541 74 115 0.0 0.0 0.00 4.44 0.61 98 1011.4
20220925114037 74 115 0.0 0.0 0.00 4.44 0.61 98 1011.4
20220925113032 74 115 0.0 0.0 0.00 4.44 0.61 98 1011.2
20220925112533 74 115 0.0 0.0 0.00 4.44 0.61 98 1011.1
20220925112032 74 115 0.0 1.0 0.00 4.44 0.61 98 1011.2
20220925111530 73 115 0.0 1.0 0.00 4.44 0.61 98 1011.1
20220925111029 73 115 0.0 1.0 0.00 4.44 0.61 98 1011.3
20220925110530 73 115 0.0 1.0 0.00 4.44 0.61 98 1011.2
20220925105523 74 115 0.0 0.0 0.00 4.44 0.61 98 1011.0
20220925104520 74 115 0.0 0.0 0.00 4.44 0.61 98 1010.9
20220925104019 74 115 0.0 0.0 0.00 4.44 0.61 98 1010.9
20220925103017 74 115 0.0 0.0 0.00 4.44 0.61 98 1010.8
20220925101513 74 115 0.0 0.0 0.00 4.44 0.61 98 1010.9
20220925101015 74 115 0.0 1.0 0.00 4.44 0.61 98 1010.9
20220925100512 74 115 0.0 1.0 0.00 4.44 0.61 98 1010.9
20220925100011 74 115 0.0 1.0 0.00 4.44 0.61 98 1010.9
20220925095509 74 115 0.0 1.0 0.00 4.44 0.61 98 1010.8
20220925095009 74 115 0.0 1.0 0.00 4.44 0.61 98 1010.8
20220925094511 74 115 0.0 1.0 0.00 4.44 0.61 98 1010.8
20220925094006 74 115 0.0 1.0 0.00 4.44 0.61 98 1010.9
20220925093459 74 115 0.0 1.0 0.00 4.44 0.61 98 1010.8
20220925092949 74 115 0.0 1.0 0.00 4.44 0.61 98 1010.8
20220925092443 74 115 0.0 1.0 0.00 4.44 0.61 98 1010.8
20220925091941 74 115 0.0 1.0 0.00 4.44 0.61 98 1010.7
20220925091440 74 115 0.0 1.0 0.00 4.44 0.61 98 1010.8
20220925090940 74 115 0.0 1.0 0.00 4.44 0.61 98 1010.9
20220925090440 75 115 0.0 1.0 0.00 4.44 0.61 98 1010.9
20220925085938 75 115 0.0 1.0 0.00 4.44 0.61 98 1010.9
20220925085436 75 115 0.0 1.0 0.00 4.44 0.61 98 1010.9
20220925084933 75 115 0.0 1.0 0.00 4.44 0.61 98 1010.7
20220925083932 75 115 0.0 0.0 0.00 4.44 0.61 98 1010.8
20220925083430 75 115 0.0 1.0 0.00 4.44 0.61 98 1010.7
20220925082930 75 115 0.0 1.0 0.00 4.44 0.61 98 1010.6
20220925082430 75 115 0.0 1.0 0.00 4.44 0.61 98 1010.6
20220925081427 75 115 0.0 0.0 0.00 4.44 0.61 98 1010.6
20220925080924 75 115 0.0 1.0 0.00 4.44 0.61 98 1010.7
20220925080424 75 115 0.0 1.0 0.00 4.44 0.61 98 1010.7
20220925074924 75 115 0.0 1.0 0.00 4.44 0.61 98 1010.9
20220925073920 75 115 0.0 1.0 0.00 4.44 0.61 98 1010.9
20220925072920 75 115 0.0 1.0 0.00 4.44 0.61 98 1011.1
20220925072419 75 115 0.0 1.0 0.00 4.44 0.61 98 1011.0
20220925070915 75 115 0.0 1.0 0.00 4.44 0.61 98 1011.1
20220925070417 75 115 0.0 1.0 0.00 4.44 0.61 98 1011.2
20220925065409 75 115 0.0 1.0 0.01 4.44 0.61 98 1011.4
20220925064910 75 115 0.0 0.0 0.25 4.44 0.61 98 1011.5
20220925064409 75 115 0.0 1.0 0.44 4.44 0.61 97 1011.5
20220925063908 75 115 0.0 1.0 0.58 4.44 0.61 97 1011.5
20220925063408 75 115 0.0 1.0 0.58 4.44 0.61 97 1011.6
20220925062909 75 115 0.0 1.0 0.58 4.44 0.61 97 1011.6
20220925062405 75 115 0.0 1.0 0.58 4.44 0.61 98 1011.6
20220925061905 75 115 0.0 2.0 0.58 4.44 0.61 97 1011.8
20220925061405 75 115 0.0 2.0 0.58 4.44 0.61 97 1011.9
20220925060406 75 115 1.0 4.0 0.58 4.44 0.61 97 1012.0
20220925054904 76 159 2.0 10.0 0.33 4.19 0.39 98 1012.5
20220925053904 76 77 0.0 1.0 0.00 3.86 0.03 98 1012.3
20220925053405 76 34 0.0 0.0 0.00 3.86 0.03 98 1012.1
20220925050902 76 15 0.0 0.0 0.03 3.86 0.03 98 1012.5
20220925045901 76 67 0.0 0.0 0.03 3.86 0.03 98 1012.6
20220925045354 76 67 0.0 0.0 0.03 3.86 0.03 97 1012.8
20220925044352 76 350 0.0 0.0 0.03 3.86 0.03 97 1012.8
20220925043850 76 350 0.0 0.0 0.03 3.86 0.03 97 1012.8